Weather History for Ely, MN

Change the Weather History Date:

Tuesday, May 7, 2013

  Actual Average Record
Temperature  
Mean Temperature 54 °F -  
Max Temperature 75 °F 57 °F 75 °F (2013)
Min Temperature 33 °F 34 °F 21 °F (2004)
Degree Days  
Heating Degree Days 11    
Growing Degree Days 4 (Base 50)    
Moisture  
Dew Point 38 °F    
Average Humidity 55    
Maximum Humidity 100    
Minimum Humidity 22    
Precipitation  
Precipitation 0.00 in - - ()
Sea Level Pressure  
Sea Level Pressure 30.01 in    
Wind  
Wind Speed 3 mph (SSW)    
Max Wind Speed 12 mph    
Max Gust Speed 20 mph    
Visibility 10 miles    
Events      
Averages and records for this station are not official NWS values.
T = Trace of Precipitation, MM = Missing Value Source: NWS Daily Summary

Daily Weather History Graph

Daily Weather History Graph

Search for Another Location

Airport:

Trip Planner

Search our weather history database for the weather conditions in past years. The results will help you decide how hot, cold, wet, or windy it might be!

Date:

Astronomy

May. 07, 2013 Rise Set
Actual Time 5:39 AM CDT 8:28 PM CDT
Civil Twilight 5:04 AM CDT 9:04 PM CDT
Nautical Twilight 4:18 AM CDT 9:50 PM CDT
Astronomical Twilight 3:25 AM CDT 10:44 PM CDT
Moon 4:24 AM CDT (5/7) 6:21 PM CDT (5/7)
Length of Visible Light 16h 00m
Length of Day
14h 48m
Waning Crescent, 5% of the Moon is Illuminated
May 7
Waning Crescent
May 9
New
May 17
First Quarter
May 24
Full
May 31
Last Quarter

Hourly Weather History & Observations

Time (CDT) Temp. Dew Point Humidity Pressure Visibility Wind Dir Wind Speed Gust Speed Precip Events Conditions
12:13 AM 42.8 °F 39.2 °F 87% 30.04 in 10.0 mi Calm Calm - N/A   Clear
12:33 AM 41.0 °F 39.2 °F 93% 30.04 in 10.0 mi Calm Calm - N/A   Clear
12:52 AM 42.8 °F 39.2 °F 87% 30.04 in 10.0 mi Calm Calm - N/A   Clear
1:13 AM 39.2 °F 37.4 °F 93% 30.04 in 10.0 mi Calm Calm - N/A   Clear
1:33 AM 39.2 °F 37.4 °F 93% 30.04 in 10.0 mi Calm Calm - N/A   Clear
1:52 AM 39.2 °F 37.4 °F 93% 30.05 in 10.0 mi Calm Calm - N/A   Clear
2:13 AM 39.2 °F 37.4 °F 93% 30.05 in 10.0 mi Calm Calm - N/A   Clear
2:33 AM 37.4 °F 35.6 °F 93% 30.05 in 10.0 mi Calm Calm - N/A   Clear
2:52 AM 37.4 °F 35.6 °F 93% 30.05 in 10.0 mi Calm Calm - N/A   Clear
3:13 AM 39.2 °F 35.6 °F 87% 30.05 in 10.0 mi Calm Calm - N/A   Clear
3:33 AM 37.4 °F 35.6 °F 93% 30.05 in 10.0 mi Calm Calm - N/A   Clear
3:52 AM 35.6 °F 33.8 °F 93% 30.05 in 10.0 mi Calm Calm - N/A   Clear
4:13 AM 35.6 °F 35.6 °F 100% 30.05 in 10.0 mi Calm Calm - N/A   Clear
4:33 AM 35.6 °F 33.8 °F 93% 30.05 in 10.0 mi Calm Calm - N/A   Clear
4:52 AM 35.6 °F 33.8 °F 93% 30.05 in 10.0 mi Calm Calm - N/A   Clear
5:13 AM 33.8 °F 33.8 °F 100% 30.06 in 10.0 mi Calm Calm - N/A   Clear
5:32 AM 35.6 °F 33.8 °F 93% 30.06 in 10.0 mi Calm Calm - N/A   Clear
5:53 AM 33.8 °F 32.0 °F 93% 30.06 in 10.0 mi Calm Calm - N/A   Clear
6:13 AM 33.8 °F 32.0 °F 93% 30.06 in 10.0 mi Calm Calm - N/A   Clear
6:32 AM 35.6 °F 33.8 °F 93% 30.06 in 10.0 mi Calm Calm - N/A   Clear
6:53 AM 37.4 °F 35.6 °F 93% 30.06 in 10.0 mi Calm Calm - N/A   Clear
7:13 AM 41.0 °F 37.4 °F 87% 30.06 in 10.0 mi Calm Calm - N/A   Clear
7:32 AM 44.6 °F 39.2 °F 81% 30.07 in 10.0 mi Calm Calm - N/A   Clear
7:53 AM 50.0 °F 42.8 °F 76% 30.06 in 10.0 mi Calm Calm - N/A   Clear
8:13 AM 53.6 °F 42.8 °F 67% 30.06 in 10.0 mi Calm Calm - N/A   Clear
8:32 AM 59.0 °F 44.6 °F 59% 30.06 in 10.0 mi Calm Calm - N/A   Clear
8:53 AM 62.6 °F 42.8 °F 48% 30.06 in 10.0 mi South 3.5 mph - N/A   Clear
9:13 AM 64.4 °F 42.8 °F 45% 30.06 in 10.0 mi SW 5.8 mph - N/A   Clear
9:32 AM 66.2 °F 41.0 °F 40% 30.06 in 10.0 mi SW 3.5 mph - N/A   Clear
9:53 AM 66.2 °F 41.0 °F 40% 30.06 in 10.0 mi SW 6.9 mph - N/A   Clear
10:13 AM 66.2 °F 41.0 °F 40% 30.05 in 10.0 mi SSW 8.1 mph - N/A   Clear
10:33 AM 69.8 °F 41.0 °F 35% 30.05 in 10.0 mi South 3.5 mph - N/A   Clear
10:53 AM 71.6 °F 41.0 °F 33% 30.04 in 10.0 mi SW 5.8 mph - N/A   Clear
11:13 AM 71.6 °F 41.0 °F 33% 30.04 in 10.0 mi South 6.9 mph - N/A   Clear
11:32 AM 71.6 °F 41.0 °F 33% 30.03 in 10.0 mi SSE 5.8 mph 10.4 mph N/A   Clear
11:53 AM 71.6 °F 41.0 °F 33% 30.03 in 10.0 mi South 11.5 mph - N/A   Scattered Clouds
12:12 PM 73.4 °F 39.2 °F 29% 30.02 in 10.0 mi South 8.1 mph - N/A   Scattered Clouds
12:33 PM 73.4 °F 39.2 °F 29% 30.02 in 10.0 mi SSW 8.1 mph - N/A   Clear
12:53 PM 73.4 °F 37.4 °F 27% 30.01 in 10.0 mi South 8.1 mph 18.4 mph N/A   Scattered Clouds
1:13 PM 71.6 °F 39.2 °F 31% 30.01 in 10.0 mi SW 6.9 mph - N/A   Mostly Cloudy
1:33 PM 71.6 °F 39.2 °F 31% 30.00 in 10.0 mi South 4.6 mph - N/A   Mostly Cloudy
1:52 PM 71.6 °F 39.2 °F 31% 30.00 in 10.0 mi SW 8.1 mph - N/A   Overcast
2:13 PM 73.4 °F 39.2 °F 29% 29.99 in 10.0 mi SSW 6.9 mph - N/A   Mostly Cloudy
2:33 PM 71.6 °F 39.2 °F 31% 29.99 in 10.0 mi SW 5.8 mph 16.1 mph N/A   Mostly Cloudy
2:53 PM 75.2 °F 39.2 °F 27% 29.98 in 10.0 mi South 8.1 mph - N/A   Mostly Cloudy
3:12 PM 75.2 °F 37.4 °F 25% 29.97 in 10.0 mi SSE 11.5 mph 19.6 mph N/A   Scattered Clouds
3:33 PM 75.2 °F 37.4 °F 25% 29.97 in 10.0 mi WSW 8.1 mph - N/A   Scattered Clouds
3:53 PM 75.2 °F 37.4 °F 25% 29.96 in 10.0 mi SSE 9.2 mph - N/A   Mostly Cloudy
4:12 PM 73.4 °F 37.4 °F 27% 29.96 in 10.0 mi South 8.1 mph - N/A   Scattered Clouds
4:33 PM 73.4 °F 37.4 °F 27% 29.95 in 10.0 mi South 8.1 mph - N/A   Mostly Cloudy
4:53 PM 71.6 °F 35.6 °F 27% 29.95 in 10.0 mi South 5.8 mph - N/A   Mostly Cloudy
5:12 PM 73.4 °F 35.6 °F 25% 29.95 in 10.0 mi SSW 11.5 mph 16.1 mph N/A   Mostly Cloudy
5:33 PM 73.4 °F 33.8 °F 23% 29.94 in 10.0 mi SW 6.9 mph - N/A   Scattered Clouds
5:53 PM 75.2 °F 33.8 °F 22% 29.94 in 10.0 mi West 8.1 mph - N/A   Scattered Clouds
6:12 PM 73.4 °F 33.8 °F 23% 29.94 in 10.0 mi SSW 8.1 mph - N/A   Scattered Clouds
6:33 PM 73.4 °F 33.8 °F 23% 29.94 in 10.0 mi SW 3.5 mph - N/A   Mostly Cloudy
6:53 PM 73.4 °F 33.8 °F 23% 29.94 in 10.0 mi SW 6.9 mph - N/A   Mostly Cloudy
7:12 PM 71.6 °F 35.6 °F 27% 29.94 in 10.0 mi SSE 8.1 mph - N/A   Mostly Cloudy
7:33 PM 68.0 °F 37.4 °F 33% 29.95 in 10.0 mi South 8.1 mph - N/A   Mostly Cloudy
7:53 PM 66.2 °F 39.2 °F 37% 29.95 in 10.0 mi SSE 9.2 mph - N/A   Scattered Clouds
8:12 PM 64.4 °F 39.2 °F 40% 29.95 in 10.0 mi SSE 6.9 mph - N/A   Scattered Clouds
8:33 PM 64.4 °F 39.2 °F 40% 29.95 in 10.0 mi South 6.9 mph - N/A   Scattered Clouds
8:53 PM 62.6 °F 39.2 °F 42% 29.96 in 10.0 mi South 4.6 mph - N/A   Clear
9:12 PM 62.6 °F 39.2 °F 42% 29.96 in 10.0 mi SSE 4.6 mph - N/A   Scattered Clouds
9:33 PM 60.8 °F 39.2 °F 45% 29.97 in 10.0 mi South 5.8 mph - N/A   Mostly Cloudy
9:53 PM 60.8 °F 39.2 °F 45% 29.97 in 10.0 mi South 5.8 mph - N/A   Overcast
10:12 PM 59.0 °F 39.2 °F 48% 29.97 in 10.0 mi South 4.6 mph - N/A   Mostly Cloudy
10:33 PM 57.2 °F 39.2 °F 51% 29.98 in 10.0 mi South 4.6 mph - N/A   Clear
10:53 PM 57.2 °F 39.2 °F 51% 29.98 in 10.0 mi Calm Calm - N/A   Clear
11:12 PM 55.4 °F 39.2 °F 54% 29.97 in 10.0 mi South 4.6 mph - N/A   Clear
11:33 PM 55.4 °F 39.2 °F 54% 29.97 in 10.0 mi South 3.5 mph - N/A   Clear
11:53 PM 53.6 °F 39.2 °F 58% 29.97 in 10.0 mi Calm Calm - N/A   Clear